#datetime,building,power
2022-06-17T00:00:00,och,4.20
2022-06-17T00:02:00,och,10.20
2022-06-17T00:03:00,och,5.40
2022-06-17T00:05:00,och,10.20
2022-06-17T00:07:00,och,10.20
2022-06-17T00:09:00,och,11.40
2022-06-17T00:11:00,och,10.20
2022-06-17T00:13:00,och,10.20
2022-06-17T00:15:00,och,11.40
2022-06-17T00:16:00,och,4.20
2022-06-17T00:18:00,och,11.40
2022-06-17T00:20:00,och,10.20
2022-06-17T00:22:00,och,10.20
2022-06-17T00:23:00,och,5.40
2022-06-17T00:24:00,och,4.80
2022-06-17T00:26:00,och,11.40
2022-06-17T00:28:00,och,10.20
2022-06-17T00:30:00,och,9.60
2022-06-17T00:32:00,och,12.00
2022-06-17T00:34:00,och,9.59
2022-06-17T00:36:00,och,10.20
2022-06-17T00:37:00,och,6.00
2022-06-17T00:39:00,och,10.20
2022-06-17T00:40:00,och,5.40
2022-06-17T00:42:00,och,10.20
2022-06-17T00:44:00,och,11.40
2022-06-17T00:46:00,och,10.20
2022-06-17T00:48:00,och,10.20
2022-06-17T00:50:00,och,10.20
2022-06-17T00:51:00,och,4.20
2022-06-17T00:53:00,och,10.20
2022-06-17T00:54:00,och,5.40
2022-06-17T00:56:00,och,10.20
2022-06-17T00:58:00,och,11.40
2022-06-17T01:00:00,och,10.20
2022-06-17T01:01:00,och,6.00
2022-06-17T01:03:00,och,11.40
2022-06-17T01:04:00,och,4.20
2022-06-17T01:06:00,och,11.40
2022-06-17T01:07:00,och,6.00
2022-06-17T01:09:00,och,10.20
2022-06-17T01:10:00,och,4.20
2022-06-17T01:11:00,och,4.20
2022-06-17T01:12:00,och,5.40
2022-06-17T01:13:00,och,10.20
2022-06-17T01:15:00,och,10.20
2022-06-17T01:17:00,och,10.20
2022-06-17T01:19:00,och,11.40
2022-06-17T01:21:00,och,10.20
2022-06-17T01:22:00,och,4.20
2022-06-17T01:24:00,och,10.20
2022-06-17T01:25:00,och,5.40
2022-06-17T01:27:00,och,10.20
2022-06-17T01:29:00,och,10.20
2022-06-17T01:31:00,och,10.20
2022-06-17T01:32:00,och,4.20
2022-06-17T01:33:00,och,6.00
2022-06-17T01:35:00,och,11.40
2022-06-17T01:37:00,och,10.20
2022-06-17T01:39:00,och,9.60
2022-06-17T01:41:00,och,12.00
2022-06-17T01:43:00,och,9.59
2022-06-17T01:44:00,och,4.80
2022-06-17T01:46:00,och,9.59
2022-06-17T01:47:00,och,6.01
2022-06-17T01:49:00,och,10.20
2022-06-17T01:51:00,och,10.20
2022-06-17T01:52:00,och,4.20
2022-06-17T01:54:00,och,10.20
2022-06-17T01:56:00,och,9.60
2022-06-17T01:57:00,och,6.00
2022-06-17T01:59:00,och,10.20
2022-06-17T02:01:00,och,10.20
2022-06-17T02:03:00,och,9.60
2022-06-17T02:04:00,och,6.00
2022-06-17T02:05:00,och,6.00
2022-06-17T02:07:00,och,9.60
2022-06-17T02:08:00,och,6.00
2022-06-17T02:09:00,och,4.20
2022-06-17T02:11:00,och,10.20
2022-06-17T02:12:00,och,6.00
2022-06-17T02:14:00,och,9.60
2022-06-17T02:16:00,och,12.00
2022-06-17T02:18:00,och,9.59
2022-06-17T02:19:00,och,4.80
2022-06-17T02:21:00,och,9.59
2022-06-17T02:23:00,och,10.20
2022-06-17T02:25:00,och,10.20
2022-06-17T02:27:00,och,10.20
2022-06-17T02:28:00,och,5.41
2022-06-17T02:30:00,och,10.20
2022-06-17T02:32:00,och,11.40
2022-06-17T02:33:00,och,4.80
2022-06-17T02:35:00,och,9.60
2022-06-17T02:37:00,och,10.20
2022-06-17T02:39:00,och,11.40
2022-06-17T02:40:00,och,4.80
2022-06-17T02:42:00,och,9.60
2022-06-17T02:44:00,och,10.20
2022-06-17T02:46:00,och,11.40
2022-06-17T02:47:00,och,4.80
2022-06-17T02:48:00,och,5.41
2022-06-17T02:50:00,och,10.20
2022-06-17T02:52:00,och,11.40
2022-06-17T02:53:00,och,6.00
2022-06-17T02:55:00,och,10.20
2022-06-17T02:56:00,och,5.40
2022-06-17T02:58:00,och,10.20
2022-06-17T03:00:00,och,10.20
2022-06-17T03:01:00,och,5.41
2022-06-17T03:03:00,och,10.20
2022-06-17T03:05:00,och,10.20
2022-06-17T03:07:00,och,10.20
2022-06-17T03:08:00,och,5.41
2022-06-17T03:10:00,och,10.20
2022-06-17T03:11:00,och,6.01
2022-06-17T03:13:00,och,10.20
2022-06-17T03:15:00,och,9.60
2022-06-17T03:17:00,och,12.00
2022-06-17T03:19:00,och,12.60
2022-06-17T03:20:00,och,4.20
2022-06-17T03:22:00,och,13.20
2022-06-17T03:23:00,och,7.20
2022-06-17T03:25:00,och,11.40
2022-06-17T03:26:00,och,6.00
2022-06-17T03:27:00,och,5.40
2022-06-17T03:29:00,och,13.21
2022-06-17T03:31:00,och,15.60
2022-06-17T03:32:00,och,8.99
2022-06-17T03:34:00,och,17.40
2022-06-17T03:35:00,och,8.40
2022-06-17T03:37:00,och,11.40
2022-06-17T03:38:00,och,6.01
2022-06-17T03:40:00,och,12.60
2022-06-17T03:41:00,och,6.00
2022-06-17T03:43:00,och,11.40
2022-06-17T03:45:00,och,10.20
2022-06-17T03:47:00,och,11.40
2022-06-17T03:49:00,och,10.20
2022-06-17T03:51:00,och,11.40
2022-06-17T03:53:00,och,10.20
2022-06-17T03:55:00,och,11.40
2022-06-17T03:56:00,och,4.20
2022-06-17T03:58:00,och,12.00
2022-06-17T03:59:00,och,5.40
2022-06-17T04:01:00,och,10.20
2022-06-17T04:03:00,och,11.40
2022-06-17T04:05:00,och,14.40
2022-06-17T04:07:00,och,14.40
2022-06-17T04:09:00,och,14.40
2022-06-17T04:11:00,och,14.40
2022-06-17T04:12:00,och,6.01
2022-06-17T04:14:00,och,14.40
2022-06-17T04:16:00,och,12.60
2022-06-17T04:18:00,och,14.40
2022-06-17T04:20:00,och,13.20
2022-06-17T04:22:00,och,14.40
2022-06-17T04:24:00,och,14.41
2022-06-17T04:26:00,och,17.40
2022-06-17T04:27:00,och,8.40
2022-06-17T04:29:00,och,17.40
2022-06-17T04:30:00,och,7.20
2022-06-17T04:31:00,och,7.20
2022-06-17T04:33:00,och,13.20
2022-06-17T04:34:00,och,7.20
2022-06-17T04:36:00,och,16.80
2022-06-17T04:37:00,och,7.20
2022-06-17T04:39:00,och,14.40
2022-06-17T04:41:00,och,13.20
2022-06-17T04:43:00,och,14.40
2022-06-17T04:45:00,och,14.40
2022-06-17T04:47:00,och,13.21
2022-06-17T04:49:00,och,14.40
2022-06-17T04:50:00,och,5.40
2022-06-17T04:52:00,och,14.40
2022-06-17T04:54:00,och,13.20
2022-06-17T04:56:00,och,12.60
2022-06-17T04:57:00,och,7.20
2022-06-17T04:58:00,och,7.20
2022-06-17T05:00:00,och,13.20
2022-06-17T05:02:00,och,14.40
2022-06-17T05:03:00,och,6.00
2022-06-17T05:05:00,och,14.40
2022-06-17T05:06:00,och,5.41
2022-06-17T05:08:00,och,14.40
2022-06-17T05:10:00,och,13.20
2022-06-17T05:11:00,och,7.20
2022-06-17T05:13:00,och,12.60
2022-06-17T05:14:00,och,7.20
2022-06-17T05:16:00,och,13.21
2022-06-17T05:18:00,och,14.40
2022-06-17T05:19:00,och,7.20
2022-06-17T05:21:00,och,13.20
2022-06-17T05:23:00,och,12.60
2022-06-17T05:25:00,och,14.40
2022-06-17T05:27:00,och,13.21
2022-06-17T05:29:00,och,14.40
2022-06-17T05:30:00,och,7.20
2022-06-17T05:31:00,och,5.40
2022-06-17T05:33:00,och,14.40
2022-06-17T05:35:00,och,14.40
2022-06-17T05:36:00,och,7.20
2022-06-17T05:38:00,och,13.20
2022-06-17T05:39:00,och,7.20
2022-06-17T05:41:00,och,14.41
2022-06-17T05:42:00,och,6.00
2022-06-17T05:44:00,och,19.80
2022-06-17T05:45:00,och,16.20
2022-06-17T05:47:00,och,27.00
2022-06-17T05:48:00,och,7.20
2022-06-17T05:49:00,och,6.01
2022-06-17T05:51:00,och,14.40
2022-06-17T05:52:00,och,5.40
2022-06-17T05:53:00,och,7.20
2022-06-17T05:55:00,och,13.20
2022-06-17T05:56:00,och,7.20
2022-06-17T05:57:00,och,6.00
2022-06-17T05:58:00,och,7.21
2022-06-17T06:00:00,och,14.40
2022-06-17T06:02:00,och,12.60
2022-06-17T06:04:00,och,17.40
2022-06-17T06:06:00,och,21.60
2022-06-17T06:08:00,och,22.80
2022-06-17T06:09:00,och,10.20
2022-06-17T06:11:00,och,23.40
2022-06-17T06:12:00,och,9.60
2022-06-17T06:13:00,och,12.00
2022-06-17T06:15:00,och,21.60
2022-06-17T06:16:00,och,9.60
2022-06-17T06:18:00,och,21.60
2022-06-17T06:19:00,och,10.20
2022-06-17T06:20:00,och,10.20
2022-06-17T06:22:00,och,21.60
2022-06-17T06:24:00,och,21.60
2022-06-17T06:26:00,och,20.40
2022-06-17T06:27:00,och,11.40
2022-06-17T06:29:00,och,19.80
2022-06-17T06:31:00,och,21.60
2022-06-17T06:33:00,och,21.60
2022-06-17T06:34:00,och,10.20
2022-06-17T06:35:00,och,10.20
2022-06-17T06:37:00,och,21.61
2022-06-17T06:39:00,och,20.40
2022-06-17T06:41:00,och,21.60
2022-06-17T06:42:00,och,9.60
2022-06-17T06:44:00,och,20.40
2022-06-17T06:45:00,och,11.40
2022-06-17T06:47:00,och,20.41
2022-06-17T06:48:00,och,10.20
2022-06-17T06:50:00,och,19.80
2022-06-17T06:52:00,och,21.60
2022-06-17T06:53:00,och,10.20
2022-06-17T06:55:00,och,20.41
2022-06-17T06:57:00,och,19.80
2022-06-17T06:58:00,och,10.20
2022-06-17T07:00:00,och,20.40
2022-06-17T07:02:00,och,19.80
2022-06-17T07:03:00,och,10.20
2022-06-17T07:05:00,och,20.40
2022-06-17T07:07:00,och,19.80
2022-06-17T07:09:00,och,20.40
2022-06-17T07:10:00,och,11.40
2022-06-17T07:12:00,och,20.41
2022-06-17T07:14:00,och,19.80
2022-06-17T07:16:00,och,20.40
2022-06-17T07:18:00,och,21.60
2022-06-17T07:20:00,och,19.80
2022-06-17T07:22:00,och,21.60
2022-06-17T07:24:00,och,20.40
2022-06-17T07:26:00,och,20.41
2022-06-17T07:28:00,och,19.80
2022-06-17T07:30:00,och,21.60
2022-06-17T07:32:00,och,20.40
2022-06-17T07:33:00,och,10.20
2022-06-17T07:35:00,och,19.80
2022-06-17T07:36:00,och,10.20
2022-06-17T07:38:00,och,18.60
2022-06-17T07:40:00,och,20.41
2022-06-17T07:42:00,och,36.00
2022-06-17T07:44:00,och,27.00
2022-06-17T07:45:00,och,10.20
2022-06-17T07:47:00,och,21.60
2022-06-17T07:49:00,och,21.60
2022-06-17T07:51:00,och,20.40
2022-06-17T07:53:00,och,21.61
2022-06-17T07:54:00,och,11.40
2022-06-17T07:56:00,och,20.40
2022-06-17T07:57:00,och,11.40
2022-06-17T07:59:00,och,21.60
2022-06-17T08:01:00,och,21.60
2022-06-17T08:03:00,och,21.60
2022-06-17T08:04:00,och,11.40
2022-06-17T08:06:00,och,20.40
2022-06-17T08:08:00,och,21.60
2022-06-17T08:09:00,och,21.60
2022-06-17T08:10:00,och,11.40
2022-06-17T08:11:00,och,22.80
2022-06-17T08:13:00,och,21.60
2022-06-17T08:15:00,och,25.80
2022-06-17T08:16:00,och,14.40
2022-06-17T08:18:00,och,34.80
2022-06-17T08:19:00,och,15.60
2022-06-17T08:21:00,och,34.80
2022-06-17T08:23:00,och,33.00
2022-06-17T08:25:00,och,33.00
2022-06-17T08:27:00,och,31.80
2022-06-17T08:29:00,och,33.00
2022-06-17T08:30:00,och,16.20
2022-06-17T08:32:00,och,33.00
2022-06-17T08:34:00,och,33.00
2022-06-17T08:36:00,och,34.80
2022-06-17T08:37:00,och,15.60
2022-06-17T08:39:00,och,33.00
2022-06-17T08:41:00,och,33.60
2022-06-17T08:43:00,och,34.20
2022-06-17T08:44:00,och,17.40
2022-06-17T08:46:00,och,37.20
2022-06-17T08:47:00,och,17.40
2022-06-17T08:49:00,och,33.00
2022-06-17T08:51:00,och,36.01
2022-06-17T08:53:00,och,36.00
2022-06-17T08:54:00,och,20.40
2022-06-17T08:56:00,och,36.00
2022-06-17T08:58:00,och,37.20
2022-06-17T09:00:00,och,36.00
2022-06-17T09:02:00,och,36.01
2022-06-17T09:03:00,och,24.59
2022-06-17T09:05:00,och,66.61
2022-06-17T09:06:00,och,66.61
2022-06-17T09:07:00,och,30.00
2022-06-17T09:08:00,och,58.80
2022-06-17T09:10:00,och,60.60
2022-06-17T09:11:00,och,30.60
2022-06-17T09:12:00,och,30.00
2022-06-17T09:14:00,och,58.80
2022-06-17T09:15:00,och,30.60
2022-06-17T09:17:00,och,58.80
2022-06-17T09:18:00,och,30.60
2022-06-17T09:20:00,och,58.80
2022-06-17T09:22:00,och,58.80
2022-06-17T09:24:00,och,53.40
2022-06-17T09:26:00,och,49.20
2022-06-17T09:28:00,och,48.60
2022-06-17T09:30:00,och,50.40
2022-06-17T09:32:00,och,43.20
2022-06-17T09:34:00,och,39.00
2022-06-17T09:36:00,och,39.00
2022-06-17T09:37:00,och,20.40
2022-06-17T09:39:00,och,41.40
2022-06-17T09:40:00,och,28.80
2022-06-17T09:41:00,och,28.80
2022-06-17T09:42:00,och,25.80
2022-06-17T09:44:00,och,38.99
2022-06-17T09:45:00,och,20.41
2022-06-17T09:47:00,och,38.99
2022-06-17T09:49:00,och,43.21
2022-06-17T09:50:00,och,25.80
2022-06-17T09:51:00,och,24.60
2022-06-17T09:53:00,och,48.60
2022-06-17T09:55:00,och,50.40
2022-06-17T09:56:00,och,24.60
2022-06-17T09:58:00,och,49.20
2022-06-17T10:00:00,och,48.60
2022-06-17T10:02:00,och,49.20
2022-06-17T10:03:00,och,24.60
2022-06-17T10:05:00,och,48.60
2022-06-17T10:07:00,och,49.20
2022-06-17T10:09:00,och,47.40
2022-06-17T10:10:00,och,24.60
2022-06-17T10:12:00,och,47.40
2022-06-17T10:14:00,och,47.40
2022-06-17T10:16:00,och,47.40
2022-06-17T10:18:00,och,49.20
2022-06-17T10:20:00,och,49.20
2022-06-17T10:22:00,och,47.40
2022-06-17T10:24:00,och,50.40
2022-06-17T10:25:00,och,24.60
2022-06-17T10:27:00,och,48.60
2022-06-17T10:28:00,och,24.60
2022-06-17T10:30:00,och,49.20
2022-06-17T10:32:00,och,48.60
2022-06-17T10:34:00,och,47.40
2022-06-17T10:35:00,och,24.60
2022-06-17T10:36:00,och,24.60
2022-06-17T10:38:00,och,49.20
2022-06-17T10:40:00,och,48.60
2022-06-17T10:42:00,och,49.20
2022-06-17T10:43:00,och,24.60
2022-06-17T10:44:00,och,24.00
2022-06-17T10:46:00,och,49.20
2022-06-17T10:48:00,och,50.41
2022-06-17T10:49:00,och,22.80
2022-06-17T10:51:00,och,49.20
2022-06-17T10:53:00,och,49.20
2022-06-17T10:55:00,och,50.41
2022-06-17T10:57:00,och,50.40
2022-06-17T10:58:00,och,25.80
2022-06-17T11:00:00,och,48.60
2022-06-17T11:02:00,och,49.20
2022-06-17T11:03:00,och,25.80
2022-06-17T11:04:00,och,24.60
2022-06-17T11:05:00,och,25.80
2022-06-17T11:07:00,och,49.20
2022-06-17T11:09:00,och,48.60
2022-06-17T11:10:00,och,31.80
2022-06-17T11:11:00,och,34.80
2022-06-17T11:13:00,och,53.40
2022-06-17T11:15:00,och,48.60
2022-06-17T11:17:00,och,49.20
2022-06-17T11:18:00,och,24.60
2022-06-17T11:19:00,och,24.00
2022-06-17T11:21:00,och,49.20
2022-06-17T11:22:00,och,24.60
2022-06-17T11:24:00,och,48.60
2022-06-17T11:25:00,och,23.40
2022-06-17T11:27:00,och,48.60
2022-06-17T11:29:00,och,49.20
2022-06-17T11:31:00,och,49.20
2022-06-17T11:33:00,och,47.40
2022-06-17T11:35:00,och,46.20
2022-06-17T11:37:00,och,45.60
2022-06-17T11:38:00,och,21.60
2022-06-17T11:40:00,och,46.20
2022-06-17T11:42:00,och,45.00
2022-06-17T11:44:00,och,45.60
2022-06-17T11:46:00,och,46.20
2022-06-17T11:47:00,och,23.40
2022-06-17T11:49:00,och,44.40
2022-06-17T11:51:00,och,40.20
2022-06-17T11:53:00,och,34.80
2022-06-17T11:54:00,och,17.40
2022-06-17T11:56:00,och,27.00
2022-06-17T11:57:00,och,14.40
2022-06-17T11:59:00,och,27.60
2022-06-17T12:01:00,och,28.80
2022-06-17T12:03:00,och,27.00
2022-06-17T12:05:00,och,27.60
2022-06-17T12:07:00,och,27.60
2022-06-17T12:09:00,och,28.80
2022-06-17T12:11:00,och,27.00
2022-06-17T12:12:00,och,13.20
2022-06-17T12:14:00,och,28.80
2022-06-17T12:15:00,och,12.60
2022-06-17T12:17:00,och,28.80
2022-06-17T12:19:00,och,27.60
2022-06-17T12:21:00,och,28.80
2022-06-17T12:22:00,och,15.60
2022-06-17T12:24:00,och,37.80
2022-06-17T12:25:00,och,18.60
2022-06-17T12:26:00,och,18.60
2022-06-17T12:28:00,och,37.80
2022-06-17T12:30:00,och,37.20
2022-06-17T12:32:00,och,36.01
2022-06-17T12:34:00,och,37.20
2022-06-17T12:35:00,och,16.19
2022-06-17T12:37:00,och,44.41
2022-06-17T12:39:00,och,27.60
2022-06-17T12:41:00,och,27.00
2022-06-17T12:42:00,och,14.40
2022-06-17T12:43:00,och,14.40
2022-06-17T12:45:00,och,27.60
2022-06-17T12:46:00,och,14.40
2022-06-17T12:48:00,och,27.60
2022-06-17T12:49:00,och,12.60
2022-06-17T12:51:00,och,27.60
2022-06-17T12:52:00,och,14.40
2022-06-17T12:53:00,och,14.40
2022-06-17T12:55:00,och,28.80
2022-06-17T12:56:00,och,12.60
2022-06-17T12:58:00,och,28.81
2022-06-17T12:59:00,och,13.20
2022-06-17T13:01:00,och,27.60
2022-06-17T13:03:00,och,28.80
2022-06-17T13:05:00,och,27.00
2022-06-17T13:07:00,och,27.60
2022-06-17T13:09:00,och,28.80
2022-06-17T13:11:00,och,27.00
2022-06-17T13:13:00,och,27.60
2022-06-17T13:15:00,och,28.80
2022-06-17T13:17:00,och,27.60
2022-06-17T13:19:00,och,27.00
2022-06-17T13:20:00,och,14.40
2022-06-17T13:22:00,och,27.60
2022-06-17T13:24:00,och,27.00
2022-06-17T13:25:00,och,13.20
2022-06-17T13:27:00,och,27.60
2022-06-17T13:28:00,och,14.40
2022-06-17T13:30:00,och,27.00
2022-06-17T13:32:00,och,28.80
2022-06-17T13:34:00,och,27.60
2022-06-17T13:36:00,och,27.00
2022-06-17T13:38:00,och,28.81
2022-06-17T13:40:00,och,27.60
2022-06-17T13:42:00,och,27.60
2022-06-17T13:44:00,och,27.00
2022-06-17T13:46:00,och,27.60
2022-06-17T13:47:00,och,14.40
2022-06-17T13:49:00,och,27.00
2022-06-17T13:51:00,och,27.60
2022-06-17T13:53:00,och,27.60
2022-06-17T13:54:00,och,14.40
2022-06-17T13:55:00,och,12.60
2022-06-17T13:57:00,och,27.60
2022-06-17T13:58:00,och,12.60
2022-06-17T14:00:00,och,36.00
2022-06-17T14:02:00,och,39.00
2022-06-17T14:03:00,och,13.20
2022-06-17T14:04:00,och,14.40
2022-06-17T14:06:00,och,37.21
2022-06-17T14:08:00,och,37.79
2022-06-17T14:10:00,och,37.21
2022-06-17T14:11:00,och,18.60
2022-06-17T14:12:00,och,18.60
2022-06-17T14:14:00,och,31.79
2022-06-17T14:16:00,och,27.60
2022-06-17T14:18:00,och,27.00
2022-06-17T14:20:00,och,28.80
2022-06-17T14:21:00,och,13.20
2022-06-17T14:23:00,och,27.60
2022-06-17T14:24:00,och,14.40
2022-06-17T14:26:00,och,27.00
2022-06-17T14:28:00,och,27.60
2022-06-17T14:30:00,och,27.00
2022-06-17T14:32:00,och,27.60
2022-06-17T14:34:00,och,25.80
2022-06-17T14:36:00,och,25.80
2022-06-17T14:38:00,och,24.60
2022-06-17T14:40:00,och,24.60
2022-06-17T14:41:00,och,13.20
2022-06-17T14:43:00,och,22.80
2022-06-17T14:45:00,och,25.80
2022-06-17T14:47:00,och,24.59
2022-06-17T14:49:00,och,22.80
2022-06-17T14:50:00,och,13.21
2022-06-17T14:52:00,och,24.59
2022-06-17T14:54:00,och,24.60
2022-06-17T14:55:00,och,11.40
2022-06-17T14:56:00,och,12.60
2022-06-17T14:58:00,och,23.40
2022-06-17T14:59:00,och,11.40
2022-06-17T15:01:00,och,24.60
2022-06-17T15:02:00,och,11.40
2022-06-17T15:03:00,och,11.40
2022-06-17T15:05:00,och,23.40
2022-06-17T15:07:00,och,23.99
2022-06-17T15:09:00,och,24.60
2022-06-17T15:10:00,och,13.20
2022-06-17T15:12:00,och,24.60
2022-06-17T15:13:00,och,11.40
2022-06-17T15:15:00,och,24.59
2022-06-17T15:16:00,och,11.40
2022-06-17T15:18:00,och,24.60
2022-06-17T15:20:00,och,23.99
2022-06-17T15:22:00,och,24.60
2022-06-17T15:24:00,och,36.00
2022-06-17T15:26:00,och,33.00
2022-06-17T15:28:00,och,24.60
2022-06-17T15:30:00,och,24.59
2022-06-17T15:32:00,och,24.60
2022-06-17T15:33:00,och,11.40
2022-06-17T15:35:00,och,24.59
2022-06-17T15:37:00,och,24.60
2022-06-17T15:39:00,och,24.00
2022-06-17T15:40:00,och,13.20
2022-06-17T15:41:00,och,13.20
2022-06-17T15:43:00,och,24.00
2022-06-17T15:45:00,och,24.60
2022-06-17T15:47:00,och,24.59
2022-06-17T15:49:00,och,25.80
2022-06-17T15:51:00,och,24.60
2022-06-17T15:53:00,och,24.59
2022-06-17T15:54:00,och,12.60
2022-06-17T15:56:00,och,24.60
2022-06-17T15:57:00,och,11.40
2022-06-17T15:59:00,och,24.60
2022-06-17T16:01:00,och,24.59
2022-06-17T16:03:00,och,24.60
2022-06-17T16:04:00,och,11.40
2022-06-17T16:06:00,och,24.59
2022-06-17T16:08:00,och,22.80
2022-06-17T16:10:00,och,24.60
2022-06-17T16:12:00,och,24.60
2022-06-17T16:14:00,och,22.80
2022-06-17T16:15:00,och,13.20
2022-06-17T16:16:00,och,11.40
2022-06-17T16:18:00,och,22.80
2022-06-17T16:20:00,och,23.40
2022-06-17T16:22:00,och,22.80
2022-06-17T16:24:00,och,23.40
2022-06-17T16:25:00,och,12.60
2022-06-17T16:27:00,och,23.40
2022-06-17T16:28:00,och,11.40
2022-06-17T16:29:00,och,11.40
2022-06-17T16:31:00,och,22.80
2022-06-17T16:32:00,och,12.00
2022-06-17T16:33:00,och,11.40
2022-06-17T16:35:00,och,22.80
2022-06-17T16:37:00,och,24.60
2022-06-17T16:39:00,och,22.80
2022-06-17T16:41:00,och,24.59
2022-06-17T16:43:00,och,23.40
2022-06-17T16:45:00,och,21.60
2022-06-17T16:47:00,och,38.40
2022-06-17T16:49:00,och,27.60
2022-06-17T16:50:00,och,11.40
2022-06-17T16:52:00,och,23.40
2022-06-17T16:53:00,och,9.60
2022-06-17T16:55:00,och,23.40
2022-06-17T16:57:00,och,21.60
2022-06-17T16:59:00,och,22.80
2022-06-17T17:01:00,och,23.40
2022-06-17T17:03:00,och,21.60
2022-06-17T17:05:00,och,22.80
2022-06-17T17:07:00,och,22.80
2022-06-17T17:09:00,och,23.40
2022-06-17T17:11:00,och,22.79
2022-06-17T17:13:00,och,21.61
2022-06-17T17:15:00,och,21.60
2022-06-17T17:16:00,och,11.40
2022-06-17T17:18:00,och,23.40
2022-06-17T17:20:00,och,22.80
2022-06-17T17:21:00,och,11.40
2022-06-17T17:23:00,och,21.60
2022-06-17T17:25:00,och,21.60
2022-06-17T17:27:00,och,23.40
2022-06-17T17:28:00,och,10.20
2022-06-17T17:30:00,och,22.80
2022-06-17T17:32:00,och,21.60
2022-06-17T17:34:00,och,22.80
2022-06-17T17:36:00,och,21.60
2022-06-17T17:38:00,och,21.61
2022-06-17T17:39:00,och,12.00
2022-06-17T17:41:00,och,21.60
2022-06-17T17:43:00,och,22.80
2022-06-17T17:45:00,och,21.60
2022-06-17T17:47:00,och,21.60
2022-06-17T17:49:00,och,22.80
2022-06-17T17:50:00,och,10.20
2022-06-17T17:51:00,och,11.40
2022-06-17T17:53:00,och,21.60
2022-06-17T17:54:00,och,12.00
2022-06-17T17:56:00,och,22.80
2022-06-17T17:58:00,och,22.80
2022-06-17T17:59:00,och,12.00
2022-06-17T18:01:00,och,22.80
2022-06-17T18:02:00,och,13.20
2022-06-17T18:03:00,och,11.40
2022-06-17T18:04:00,och,11.40
2022-06-17T18:06:00,och,22.80
2022-06-17T18:08:00,och,23.40
2022-06-17T18:10:00,och,36.00
2022-06-17T18:11:00,och,18.60
2022-06-17T18:13:00,och,22.80
2022-06-17T18:14:00,och,10.20
2022-06-17T18:16:00,och,23.39
2022-06-17T18:18:00,och,21.61
2022-06-17T18:19:00,och,11.40
2022-06-17T18:20:00,och,11.40
2022-06-17T18:22:00,och,22.80
2022-06-17T18:24:00,och,21.61
2022-06-17T18:25:00,och,12.00
2022-06-17T18:27:00,och,22.80
2022-06-17T18:28:00,och,11.40
2022-06-17T18:30:00,och,21.61
2022-06-17T18:31:00,och,11.40
2022-06-17T18:33:00,och,23.40
2022-06-17T18:34:00,och,11.40
2022-06-17T18:35:00,och,11.40
2022-06-17T18:37:00,och,23.40
2022-06-17T18:38:00,och,11.40
2022-06-17T18:40:00,och,22.80
2022-06-17T18:41:00,och,11.40
2022-06-17T18:43:00,och,21.60
2022-06-17T18:45:00,och,23.40
2022-06-17T18:47:00,och,21.60
2022-06-17T18:48:00,och,11.40
2022-06-17T18:50:00,och,21.60
2022-06-17T18:52:00,och,22.80
2022-06-17T18:54:00,och,23.40
2022-06-17T18:56:00,och,21.60
2022-06-17T18:58:00,och,21.60
2022-06-17T19:00:00,och,21.61
2022-06-17T19:02:00,och,22.80
2022-06-17T19:03:00,och,10.20
2022-06-17T19:05:00,och,21.60
2022-06-17T19:07:00,och,22.80
2022-06-17T19:09:00,och,21.60
2022-06-17T19:11:00,och,21.60
2022-06-17T19:12:00,och,12.00
2022-06-17T19:14:00,och,22.80
2022-06-17T19:15:00,och,10.20
2022-06-17T19:17:00,och,22.80
2022-06-17T19:19:00,och,21.61
2022-06-17T19:21:00,och,23.39
2022-06-17T19:22:00,och,9.60
2022-06-17T19:24:00,och,23.40
2022-06-17T19:26:00,och,21.60
2022-06-17T19:27:00,och,11.40
2022-06-17T19:28:00,och,11.40
2022-06-17T19:30:00,och,23.40
2022-06-17T19:32:00,och,24.00
2022-06-17T19:34:00,och,34.80
2022-06-17T19:35:00,och,8.40
2022-06-17T19:37:00,och,17.40
2022-06-17T19:39:00,och,16.20
2022-06-17T19:40:00,och,7.20
2022-06-17T19:42:00,och,15.60
2022-06-17T19:43:00,och,7.20
2022-06-17T19:44:00,och,7.20
2022-06-17T19:46:00,och,14.40
2022-06-17T19:48:00,och,15.60
2022-06-17T19:50:00,och,14.40
2022-06-17T19:52:00,och,14.40
2022-06-17T19:53:00,och,9.00
2022-06-17T19:54:00,och,8.39
2022-06-17T19:56:00,och,18.60
2022-06-17T19:58:00,och,17.40
2022-06-17T20:00:00,och,16.19
2022-06-17T20:01:00,och,7.21
2022-06-17T20:03:00,och,15.59
2022-06-17T20:04:00,och,7.20
2022-06-17T20:05:00,och,7.21
2022-06-17T20:07:00,och,14.40
2022-06-17T20:09:00,och,15.60
2022-06-17T20:10:00,och,7.20
2022-06-17T20:12:00,och,14.40
2022-06-17T20:13:00,och,7.20
2022-06-17T20:15:00,och,14.40
2022-06-17T20:17:00,och,16.20
2022-06-17T20:19:00,och,14.40
2022-06-17T20:21:00,och,14.40
2022-06-17T20:22:00,och,7.20
2022-06-17T20:24:00,och,15.60
2022-06-17T20:26:00,och,17.40
2022-06-17T20:27:00,och,7.20
2022-06-17T20:29:00,och,15.60
2022-06-17T20:31:00,och,14.40
2022-06-17T20:33:00,och,16.20
2022-06-17T20:35:00,och,15.60
2022-06-17T20:37:00,och,14.40
2022-06-17T20:38:00,och,9.00
2022-06-17T20:40:00,och,14.40
2022-06-17T20:42:00,och,15.60
2022-06-17T20:43:00,och,8.40
2022-06-17T20:44:00,och,7.20
2022-06-17T20:46:00,och,16.20
2022-06-17T20:47:00,och,7.20
2022-06-17T20:48:00,och,7.20
2022-06-17T20:50:00,och,15.60
2022-06-17T20:52:00,och,16.20
2022-06-17T20:54:00,och,14.40
2022-06-17T20:56:00,och,15.60
2022-06-17T20:58:00,och,15.60
2022-06-17T20:59:00,och,7.20
2022-06-17T21:00:00,och,7.20
2022-06-17T21:02:00,och,16.20
2022-06-17T21:03:00,och,7.20
2022-06-17T21:05:00,och,15.59
2022-06-17T21:07:00,och,16.20
2022-06-17T21:09:00,och,14.40
2022-06-17T21:11:00,och,15.60
2022-06-17T21:13:00,och,14.40
2022-06-17T21:14:00,och,7.20
2022-06-17T21:16:00,och,15.60
2022-06-17T21:18:00,och,14.40
2022-06-17T21:19:00,och,7.20
2022-06-17T21:20:00,och,9.00
2022-06-17T21:22:00,och,14.40
2022-06-17T21:23:00,och,8.40
2022-06-17T21:25:00,och,14.40
2022-06-17T21:26:00,och,7.20
2022-06-17T21:28:00,och,16.20
2022-06-17T21:30:00,och,14.40
2022-06-17T21:32:00,och,15.60
2022-06-17T21:33:00,och,7.20
2022-06-17T21:35:00,och,15.60
2022-06-17T21:37:00,och,14.40
2022-06-17T21:38:00,och,7.20
2022-06-17T21:40:00,och,16.20
2022-06-17T21:42:00,och,15.60
2022-06-17T21:43:00,och,7.20
2022-06-17T21:45:00,och,16.20
2022-06-17T21:47:00,och,15.60
2022-06-17T21:48:00,och,7.20
2022-06-17T21:49:00,och,8.40
2022-06-17T21:51:00,och,16.20
2022-06-17T21:53:00,och,15.60
2022-06-17T21:54:00,och,7.20
2022-06-17T21:56:00,och,16.19
2022-06-17T21:58:00,och,15.60
2022-06-17T22:00:00,och,15.60
2022-06-17T22:01:00,och,15.60
2022-06-17T22:02:00,och,14.40
2022-06-17T22:04:00,och,13.21
2022-06-17T22:06:00,och,13.20
2022-06-17T22:07:00,och,5.40
2022-06-17T22:09:00,och,11.40
2022-06-17T22:10:00,och,6.00
2022-06-17T22:11:00,och,6.00
2022-06-17T22:13:00,och,30.00
2022-06-17T22:15:00,och,15.60
2022-06-17T22:17:00,och,14.40
2022-06-17T22:18:00,och,7.20